Find Starlink 4168

NORAD ID: 52845 Int'l Des: 2022-062 Owner: SPXS Country: US Constellation: starlink operational
LEOCIRCULAR

实时位置

正在加载3D地球...

关于 Starlink 4168

正在加载描述...

即将过境

Passes for default location (London). Set your location on the main map for personalized predictions.

高度历史

Loading altitude history...

两行轨道根数

1 52845U 22062R 26124.43225563 .00000339 00000-0 39417-4 0 9994
2 52845 53.2159 143.9470 0001247 79.6241 280.4892 15.08839280214208
Epoch: May 4, 2026 • Age: 10 hours

当前状态

高度 542.6 km
速度 7.60 km/s
星下点 39.07°N, 115.01°E
发射日期 Jun 17, 2022
运行时间 3.8 years
类型 internet

技术详情

分类 Payload
质量 297.00 kg
干质量 275.00 kg
总质量 297.00 kg
长度 0.20 m
直径 2.80 m
跨度 9.00 m
形状 Box + pan
制造商 SPXS
平台类型 Starlink
阶段状态 In Orbit
所有者/国家 SPXS/US

Most Searched